Time,TemperatureF,DewpointF,PressureIn,WindDirection,WindDirectionDegrees,WindSpeedMPH,WindSpeedGustMPH,Humidity,HourlyPrecipIn,Conditions,Clouds,dailyrainin,SoftwareType,DateUTC
2013-02-15 00:01:00,9.0,5.0,-100.00,WNW,285,8.0,15.0,85,-99.99,,,-99.99,,2013-02-15 07:01:00,
2013-02-15 00:11:00,9.0,5.0,-100.00,SW,234,9.0,15.0,83,-99.99,,,-99.99,,2013-02-15 07:11:00,
2013-02-15 00:21:00,9.0,5.0,-100.00,West,274,9.0,16.0,84,-99.99,,,-99.99,,2013-02-15 07:21:00,
2013-02-15 00:31:00,9.0,5.0,-100.00,West,268,9.0,16.0,84,-99.99,,,-99.99,,2013-02-15 07:31:00,
2013-02-15 00:41:00,9.0,5.0,-100.00,West,268,9.0,16.0,83,-99.99,,,-99.99,,2013-02-15 07:41:00,
2013-02-15 00:52:00,9.0,5.0,-100.00,West,262,9.0,16.0,84,-99.99,,,-99.99,,2013-02-15 07:52:00,
2013-02-15 01:01:00,9.0,5.0,-100.00,West,274,7.0,16.0,84,-99.99,,,-99.99,,2013-02-15 08:01:00,
2013-02-15 01:11:00,9.0,3.0,-100.00,North,0,10.0,19.0,79,-99.99,,,-99.99,,2013-02-15 08:11:00,
2013-02-15 01:21:00,9.0,4.0,-100.00,WSW,239,8.0,16.0,82,-99.99,,,-99.99,,2013-02-15 08:21:00,
2013-02-15 01:31:00,9.0,4.0,-100.00,WSW,245,7.0,16.0,82,-99.99,,,-99.99,,2013-02-15 08:31:00,
2013-02-15 01:41:00,9.0,3.0,-100.00,West,268,8.0,18.0,78,-99.99,,,-99.99,,2013-02-15 08:41:00,
2013-02-15 01:52:00,8.0,3.0,-100.00,West,274,8.0,14.0,80,-99.99,,,-99.99,,2013-02-15 08:52:00,
2013-02-15 02:01:00,8.0,3.0,-100.00,WNW,285,7.0,14.0,80,-99.99,,,-99.99,,2013-02-15 09:01:00,
2013-02-15 02:12:00,8.0,3.0,-100.00,WNW,285,7.0,14.0,80,-99.99,,,-99.99,,2013-02-15 09:12:00,
2013-02-15 02:21:00,8.0,2.0,-100.00,WNW,285,4.0,10.0,79,-99.99,,,-99.99,,2013-02-15 09:21:00,
2013-02-15 02:32:00,8.0,2.0,-100.00,WNW,302,8.0,10.0,79,-99.99,,,-99.99,,2013-02-15 09:32:00,
2013-02-15 02:41:00,8.0,1.0,-100.00,WNW,302,8.0,19.0,75,-99.99,,,-99.99,,2013-02-15 09:41:00,
2013-02-15 02:51:00,8.0,2.0,-100.00,WNW,302,8.0,10.0,79,-99.99,,,-99.99,,2013-02-15 09:51:00,
2013-02-15 03:01:00,8.0,2.0,-100.00,WNW,302,8.0,10.0,79,-99.99,,,-99.99,,2013-02-15 10:01:00,
2013-02-15 03:11:00,7.0,2.0,-100.00,SW,234,2.0,9.0,81,-99.99,,,-99.99,,2013-02-15 10:11:00,
2013-02-15 03:21:00,7.0,2.0,-100.00,SW,234,2.0,8.0,80,-99.99,,,-99.99,,2013-02-15 10:21:00,
2013-02-15 03:31:00,7.0,2.0,-100.00,SW,234,2.0,8.0,80,-99.99,,,-99.99,,2013-02-15 10:31:00,
2013-02-15 03:41:00,7.0,2.0,-100.00,SW,234,2.0,10.0,82,-99.99,,,-99.99,,2013-02-15 10:41:00,
2013-02-15 03:51:00,7.0,2.0,-100.00,SW,234,2.0,9.0,82,-99.99,,,-99.99,,2013-02-15 10:51:00,
2013-02-15 04:01:00,7.0,2.0,-100.00,SSW,205,2.0,9.0,82,-99.99,,,-99.99,,2013-02-15 11:01:00,
2013-02-15 04:11:00,7.0,2.0,-100.00,SSW,205,2.0,8.0,81,-99.99,,,-99.99,,2013-02-15 11:11:00,
2013-02-15 04:22:00,7.0,2.0,-100.00,SSW,205,2.0,9.0,81,-99.99,,,-99.99,,2013-02-15 11:22:00,
2013-02-15 04:31:00,7.0,2.0,-100.00,North,6,2.0,9.0,81,-99.99,,,-99.99,,2013-02-15 11:31:00,
2013-02-15 04:42:00,6.0,1.0,-100.00,North,6,2.0,18.0,82,-99.99,,,-99.99,,2013-02-15 11:42:00,
2013-02-15 04:52:00,6.0,1.0,-100.00,North,6,2.0,9.0,80,-99.99,,,-99.99,,2013-02-15 11:52:00,
2013-02-15 05:01:00,6.0,1.0,-100.00,North,6,2.0,9.0,80,-99.99,,,-99.99,,2013-02-15 12:01:00,
2013-02-15 05:11:00,6.0,1.0,-100.00,WNW,296,2.0,11.0,81,-99.99,,,-99.99,,2013-02-15 12:11:00,
2013-02-15 05:21:00,6.0,1.0,-100.00,SSW,211,7.0,15.0,81,-99.99,,,-99.99,,2013-02-15 12:21:00,
2013-02-15 05:32:00,6.0,1.0,-100.00,WNW,302,7.0,15.0,81,-99.99,,,-99.99,,2013-02-15 12:32:00,
2013-02-15 05:42:00,7.0,2.0,-100.00,WSW,251,10.0,16.0,79,-99.99,,,-99.99,,2013-02-15 12:42:00,
2013-02-15 05:52:00,7.0,2.0,-100.00,NW,308,10.0,17.0,80,-99.99,,,-99.99,,2013-02-15 12:52:00,
2013-02-15 06:02:00,7.0,2.0,-100.00,West,268,11.0,17.0,80,-99.99,,,-99.99,,2013-02-15 13:02:00,
2013-02-15 06:11:00,7.0,2.0,-100.00,West,279,8.0,15.0,82,-99.99,,,-99.99,,2013-02-15 13:11:00,
2013-02-15 06:21:00,7.0,3.0,-100.00,West,268,9.0,19.0,83,-99.99,,,-99.99,,2013-02-15 13:21:00,
2013-02-15 06:32:00,7.0,3.0,-100.00,West,268,9.0,19.0,83,-99.99,,,-99.99,,2013-02-15 13:32:00,
2013-02-15 06:41:00,7.0,1.0,-100.00,WSW,251,7.0,10.0,79,-99.99,,,-99.99,,2013-02-15 13:41:00,
2013-02-15 06:52:00,7.0,1.0,-100.00,NE,34,6.0,14.0,78,-99.99,,,-99.99,,2013-02-15 13:52:00,
2013-02-15 07:01:00,7.0,1.0,-100.00,WSW,251,7.0,14.0,78,-99.99,,,-99.99,,2013-02-15 14:01:00,
2013-02-15 07:11:00,7.0,2.0,-100.00,WSW,256,6.0,14.0,80,-99.99,,,-99.99,,2013-02-15 14:11:00,
2013-02-15 07:21:00,7.0,1.0,-100.00,West,268,9.0,15.0,78,-99.99,,,-99.99,,2013-02-15 14:21:00,
2013-02-15 07:32:00,7.0,1.0,-100.00,West,262,8.0,15.0,78,-99.99,,,-99.99,,2013-02-15 14:32:00,
2013-02-15 07:41:00,7.0,1.0,-100.00,North,359,6.0,17.0,76,-99.99,,,-99.99,,2013-02-15 14:41:00,
2013-02-15 07:52:00,8.0,1.0,-100.00,North,359,6.0,13.0,75,-99.99,,,-99.99,,2013-02-15 14:52:00,
2013-02-15 08:01:00,8.0,1.0,-100.00,West,274,3.0,13.0,75,-99.99,,,-99.99,,2013-02-15 15:01:00,
2013-02-15 08:11:00,8.0,1.0,-100.00,West,274,3.0,10.0,74,-99.99,,,-99.99,,2013-02-15 15:11:00,
2013-02-15 08:21:00,10.0,3.0,-100.00,West,274,3.0,10.0,74,-99.99,,,-99.99,,2013-02-15 15:21:00,
2013-02-15 08:32:00,10.0,3.0,-100.00,NW,313,4.0,10.0,74,-99.99,,,-99.99,,2013-02-15 15:32:00,
2013-02-15 08:42:00,11.0,2.0,-100.00,WSW,239,4.0,10.0,67,-99.99,,,-99.99,,2013-02-15 15:42:00,
2013-02-15 08:51:00,13.0,3.0,-100.00,WSW,239,4.0,12.0,64,-99.99,,,-99.99,,2013-02-15 15:51:00,
2013-02-15 09:01:00,13.0,3.0,-100.00,WSW,239,4.0,12.0,64,-99.99,,,-99.99,,2013-02-15 16:01:00,
2013-02-15 09:11:00,12.0,1.0,-100.00,West,274,3.0,10.0,63,-99.99,,,-99.99,,2013-02-15 16:11:00,
2013-02-15 09:22:00,12.0,3.0,-100.00,West,274,3.0,8.0,67,-99.99,,,-99.99,,2013-02-15 16:22:00,
2013-02-15 09:31:00,12.0,3.0,-100.00,WNW,296,3.0,8.0,67,-99.99,,,-99.99,,2013-02-15 16:31:00,
2013-02-15 09:42:00,11.0,3.0,-100.00,WNW,296,3.0,11.0,72,-99.99,,,-99.99,,2013-02-15 16:42:00,
2013-02-15 09:51:00,12.0,3.0,-100.00,North,359,4.0,12.0,67,-99.99,,,-99.99,,2013-02-15 16:51:00,
2013-02-15 10:01:00,12.0,3.0,-100.00,North,359,4.0,12.0,67,-99.99,,,-99.99,,2013-02-15 17:01:00,
2013-02-15 10:11:00,11.0,4.0,-100.00,North,359,4.0,10.0,73,-99.99,,,-99.99,,2013-02-15 17:11:00,
2013-02-15 10:21:00,11.0,4.0,-100.00,WSW,245,3.0,10.0,73,-99.99,,,-99.99,,2013-02-15 17:21:00,
2013-02-15 10:32:00,11.0,4.0,-100.00,WSW,245,3.0,10.0,73,-99.99,,,-99.99,,2013-02-15 17:32:00,
2013-02-15 10:41:00,13.0,4.0,-100.00,NNW,336,3.0,12.0,69,-99.99,,,-99.99,,2013-02-15 17:41:00,
2013-02-15 10:52:00,14.0,5.0,-100.00,NNW,336,3.0,12.0,68,-99.99,,,-99.99,,2013-02-15 17:52:00,
2013-02-15 11:01:00,14.0,5.0,-100.00,North,0,5.0,12.0,68,-99.99,,,-99.99,,2013-02-15 18:01:00,
2013-02-15 11:11:00,15.0,5.0,-100.00,SW,228,6.0,19.0,63,-99.99,,,-99.99,,2013-02-15 18:11:00,
2013-02-15 11:21:00,15.0,5.0,-100.00,WSW,256,9.0,23.0,66,-99.99,,,-99.99,,2013-02-15 18:21:00,
2013-02-15 11:31:00,15.0,5.0,-100.00,West,279,13.0,23.0,66,-99.99,,,-99.99,,2013-02-15 18:31:00,
2013-02-15 11:41:00,12.0,2.0,-100.00,WSW,256,16.0,27.0,66,-99.99,,,-99.99,,2013-02-15 18:41:00,
2013-02-15 11:52:00,13.0,3.0,-100.00,WSW,256,15.0,27.0,65,-99.99,,,-99.99,,2013-02-15 18:52:00,
2013-02-15 12:01:00,13.0,3.0,-100.00,West,274,14.0,27.0,65,-99.99,,,-99.99,,2013-02-15 19:01:00,
2013-02-15 12:11:00,12.0,3.0,-100.00,WNW,285,15.0,24.0,66,-99.99,,,-99.99,,2013-02-15 19:11:00,
2013-02-15 12:22:00,13.0,2.0,-100.00,West,274,14.0,26.0,63,-99.99,,,-99.99,,2013-02-15 19:22:00,
2013-02-15 12:32:00,13.0,2.0,-100.00,NE,40,17.0,26.0,63,-99.99,,,-99.99,,2013-02-15 19:32:00,
2013-02-15 12:41:00,14.0,3.0,-100.00,West,268,17.0,23.0,61,-99.99,,,-99.99,,2013-02-15 19:41:00,
2013-02-15 12:51:00,13.0,0.0,-100.00,WSW,251,15.0,24.0,57,-99.99,,,-99.99,,2013-02-15 19:51:00,
2013-02-15 13:01:00,13.0,0.0,-100.00,WSW,239,18.0,24.0,57,-99.99,,,-99.99,,2013-02-15 20:01:00,
2013-02-15 13:11:00,13.0,0.0,-100.00,West,279,15.0,27.0,57,-99.99,,,-99.99,,2013-02-15 20:11:00,
2013-02-15 13:21:00,12.0,3.0,-100.00,West,262,12.0,22.0,67,-99.99,,,-99.99,,2013-02-15 20:21:00,
2013-02-15 13:32:00,12.0,3.0,-100.00,WSW,245,13.0,22.0,67,-99.99,,,-99.99,,2013-02-15 20:32:00,
2013-02-15 13:42:00,13.0,2.0,-100.00,WSW,245,14.0,23.0,60,-99.99,,,-99.99,,2013-02-15 20:42:00,
2013-02-15 13:52:00,13.0,2.0,-100.00,WSW,239,13.0,19.0,63,-99.99,,,-99.99,,2013-02-15 20:52:00,
2013-02-15 14:01:00,13.0,2.0,-100.00,West,279,14.0,19.0,63,-99.99,,,-99.99,,2013-02-15 21:01:00,
2013-02-15 14:11:00,12.0,3.0,-100.00,WNW,296,12.0,22.0,67,-99.99,,,-99.99,,2013-02-15 21:11:00,
2013-02-15 14:21:00,12.0,3.0,-100.00,WSW,256,14.0,21.0,68,-99.99,,,-99.99,,2013-02-15 21:21:00,
2013-02-15 14:31:00,12.0,3.0,-100.00,WSW,256,12.0,21.0,68,-99.99,,,-99.99,,2013-02-15 21:31:00,
2013-02-15 14:42:00,12.0,2.0,-100.00,West,268,11.0,18.0,64,-99.99,,,-99.99,,2013-02-15 21:42:00,
2013-02-15 14:51:00,12.0,4.0,-100.00,WSW,251,11.0,19.0,70,-99.99,,,-99.99,,2013-02-15 21:51:00,
2013-02-15 15:02:00,12.0,4.0,-100.00,SW,228,11.0,19.0,70,-99.99,,,-99.99,,2013-02-15 22:02:00,
2013-02-15 15:11:00,11.0,5.0,-100.00,SSE,154,8.0,16.0,79,-99.99,,,-99.99,,2013-02-15 22:11:00,
2013-02-15 15:21:00,11.0,4.0,-100.00,WNW,291,6.0,13.0,73,-99.99,,,-99.99,,2013-02-15 22:21:00,
2013-02-15 15:31:00,11.0,4.0,-100.00,SE,142,7.0,13.0,73,-99.99,,,-99.99,,2013-02-15 22:31:00,
2013-02-15 15:41:00,11.0,5.0,-100.00,West,274,7.0,15.0,77,-99.99,,,-99.99,,2013-02-15 22:41:00,
2013-02-15 15:51:00,11.0,4.0,-100.00,West,274,7.0,15.0,72,-99.99,,,-99.99,,2013-02-15 22:51:00,
2013-02-15 16:02:00,11.0,4.0,-100.00,East,85,6.0,15.0,72,-99.99,,,-99.99,,2013-02-15 23:02:00,
2013-02-15 16:11:00,11.0,4.0,-100.00,West,274,5.0,15.0,75,-99.99,,,-99.99,,2013-02-15 23:11:00,
2013-02-15 16:21:00,11.0,5.0,-100.00,West,279,6.0,12.0,79,-99.99,,,-99.99,,2013-02-15 23:21:00,
2013-02-15 16:31:00,11.0,5.0,-100.00,West,279,6.0,12.0,79,-99.99,,,-99.99,,2013-02-15 23:31:00,
2013-02-15 16:42:00,11.0,5.0,-100.00,West,268,9.0,18.0,77,-99.99,,,-99.99,,2013-02-15 23:42:00,
2013-02-15 16:52:00,10.0,5.0,-100.00,WNW,285,5.0,14.0,82,-99.99,,,-99.99,,2013-02-15 23:52:00,
2013-02-15 17:02:00,10.0,5.0,-100.00,West,268,0.0,14.0,82,-99.99,,,-99.99,,2013-02-16 00:02:00,
2013-02-15 17:11:00,10.0,5.0,-100.00,WSW,256,10.0,15.0,83,-99.99,,,-99.99,,2013-02-16 00:11:00,
2013-02-15 17:21:00,9.0,5.0,-100.00,West,268,8.0,17.0,85,-99.99,,,-99.99,,2013-02-16 00:21:00,
2013-02-15 17:32:00,9.0,5.0,-100.00,West,262,8.0,17.0,85,-99.99,,,-99.99,,2013-02-16 00:32:00,
2013-02-15 17:41:00,9.0,4.0,-100.00,West,262,8.0,16.0,82,-99.99,,,-99.99,,2013-02-16 00:41:00,
2013-02-15 17:51:00,9.0,5.0,-100.00,NW,308,9.0,15.0,83,-99.99,,,-99.99,,2013-02-16 00:51:00,
2013-02-15 18:02:00,9.0,5.0,-100.00,NW,308,9.0,15.0,83,-99.99,,,-99.99,,2013-02-16 01:02:00,
2013-02-15 18:11:00,8.0,4.0,-100.00,SW,222,5.0,15.0,85,-99.99,,,-99.99,,2013-02-16 01:11:00,
2013-02-15 18:21:00,8.0,4.0,-100.00,WNW,291,10.0,20.0,83,-99.99,,,-99.99,,2013-02-16 01:21:00,
2013-02-15 18:31:00,8.0,4.0,-100.00,West,262,18.0,20.0,83,-99.99,,,-99.99,,2013-02-16 01:31:00,
2013-02-15 18:41:00,9.0,5.0,-100.00,WNW,285,10.0,28.0,83,-99.99,,,-99.99,,2013-02-16 01:41:00,
2013-02-15 18:51:00,8.0,4.0,-100.00,SSW,211,10.0,19.0,83,-99.99,,,-99.99,,2013-02-16 01:51:00,
2013-02-15 19:01:00,8.0,4.0,-100.00,WNW,285,9.0,19.0,83,-99.99,,,-99.99,,2013-02-16 02:01:00,
2013-02-15 19:11:00,8.0,3.0,-100.00,West,262,12.0,17.0,82,-99.99,,,-99.99,,2013-02-16 02:11:00,
2013-02-15 19:21:00,8.0,3.0,-100.00,West,262,12.0,17.0,82,-99.99,,,-99.99,,2013-02-16 02:21:00,
2013-02-15 19:31:00,9.0,2.0,-100.00,North,6,20.0,20.0,78,-99.99,,,-99.99,,2013-02-16 02:31:00,
2013-02-15 19:42:00,8.0,4.0,-100.00,North,0,7.0,14.0,85,-99.99,,,-99.99,,2013-02-16 02:42:00,
2013-02-15 19:52:00,9.0,4.0,-100.00,North,11,9.0,22.0,81,-99.99,,,-99.99,,2013-02-16 02:52:00,
2013-02-15 20:01:00,9.0,4.0,-100.00,WSW,251,15.0,22.0,81,-99.99,,,-99.99,,2013-02-16 03:01:00,
2013-02-15 20:11:00,10.0,4.0,-100.00,WNW,285,15.0,29.0,77,-99.99,,,-99.99,,2013-02-16 03:11:00,
2013-02-15 20:21:00,11.0,4.0,-100.00,West,279,18.0,28.0,74,-99.99,,,-99.99,,2013-02-16 03:21:00,
2013-02-15 20:31:00,11.0,4.0,-100.00,WSW,256,23.0,28.0,74,-99.99,,,-99.99,,2013-02-16 03:31:00,
2013-02-15 20:41:00,11.0,3.0,-100.00,West,262,19.0,30.0,71,-99.99,,,-99.99,,2013-02-16 03:41:00,
2013-02-15 20:52:00,12.0,5.0,-100.00,SSE,160,14.0,30.0,73,-99.99,,,-99.99,,2013-02-16 03:52:00,
2013-02-15 21:01:00,12.0,5.0,-100.00,WSW,245,11.0,30.0,73,-99.99,,,-99.99,,2013-02-16 04:01:00,
2013-02-15 21:11:00,11.0,5.0,-100.00,WSW,256,10.0,25.0,76,-99.99,,,-99.99,,2013-02-16 04:11:00,
2013-02-15 21:21:00,12.0,6.0,-100.00,West,262,18.0,28.0,76,-99.99,,,-99.99,,2013-02-16 04:21:00,
2013-02-15 21:32:00,12.0,6.0,-100.00,WNW,296,23.0,28.0,76,-99.99,,,-99.99,,2013-02-16 04:32:00,
2013-02-15 21:41:00,12.0,6.0,-100.00,West,279,23.0,33.0,78,-99.99,,,-99.99,,2013-02-16 04:41:00,
2013-02-15 21:51:00,12.0,7.0,-100.00,West,268,20.0,32.0,80,-99.99,,,-99.99,,2013-02-16 04:51:00,
2013-02-15 22:00:00,12.0,7.0,-100.00,West,268,22.0,31.0,81,-99.99,,,-99.99,,2013-02-16 05:00:00,
2013-02-15 22:01:00,12.0,7.0,-100.00,West,268,20.0,32.0,80,-99.99,,,-99.99,,2013-02-16 05:01:00,
2013-02-15 22:12:00,12.0,7.0,-100.00,West,268,22.0,31.0,81,-99.99,,,-99.99,,2013-02-16 05:12:00,
2013-02-15 22:21:00,12.0,7.0,-100.00,West,268,22.0,31.0,81,-99.99,,,-99.99,,2013-02-16 05:21:00,
2013-02-15 22:31:00,12.0,7.0,-100.00,West,268,22.0,31.0,81,-99.99,,,-99.99,,2013-02-16 05:31:00,
2013-02-15 22:42:00,12.0,7.0,-100.00,West,268,22.0,31.0,81,-99.99,,,-99.99,,2013-02-16 05:42:00,
2013-02-15 22:52:00,12.0,7.0,-100.00,West,268,22.0,31.0,81,-99.99,,,-99.99,,2013-02-16 05:52:00,